This is the latest recevied weather packets stored in our database for station/object N0NB. If no packets are shown the sender has not sent any weather packets the latest 10 day(s).
| Time | Temp. | Humidity | Pressure | Rain* | Wind** | Luminosity | Snow |
|---|---|---|---|---|---|---|---|
| 1777659016 | 16.11° C | 40% | 1017.8 hPa | 0 mm | - | 904 W/m² | - |
| 1777658416 | 15.56° C | 46% | 1017.8 hPa | 0 mm | - | 887 W/m² | - |
| 1777657816 | 16.11° C | 42% | 1018.1 hPa | 0 mm | - | 771 W/m² | - |
| 1777657216 | 16.11° C | 45% | 1018 hPa | 0 mm | - | 920 W/m² | - |
| 1777656616 | 16.11° C | 42% | 1018.1 hPa | 0 mm | - | 863 W/m² | - |
| 1777656016 | 15.56° C | 41% | 1018.1 hPa | 0 mm | - | 880 W/m² | - |
| 1777655416 | 16.11° C | 41% | 1018.2 hPa | 0 mm | - | 641 W/m² | - |
| 1777654816 | 15.56° C | 42% | 1018 hPa | 0 mm | - | 830 W/m² | - |
| 1777654216 | 15.56° C | 41% | 1018.3 hPa | 0 mm | - | 810 W/m² | - |
| 1777653616 | 15.56° C | 44% | 1018.2 hPa | 0 mm | - | 820 W/m² | - |
| 1777653016 | 15° C | 44% | 1018.1 hPa | 0 mm | - | 774 W/m² | - |
| 1777652416 | 15° C | 47% | 1018.4 hPa | 0 mm | - | 784 W/m² | - |
| 1777651816 | 14.44° C | 49% | 1018.2 hPa | 0 mm | - | 759 W/m² | - |
| 1777651216 | 13.89° C | 53% | 1018.3 hPa | 0 mm | - | 606 W/m² | - |
| 1777650616 | 13.33° C | 55% | 1018.3 hPa | 0 mm | - | 838 W/m² | - |
| 1777650016 | 12.78° C | 62% | 1018.4 hPa | 0 mm | - | 666 W/m² | - |
| 1777649416 | 12.22° C | 61% | 1018.6 hPa | 0 mm | - | 621 W/m² | - |
| 1777648816 | 11.67° C | 63% | 1018.6 hPa | 0 mm | - | 594 W/m² | - |
| 1777648216 | 11.67° C | 62% | 1018.6 hPa | 0 mm | - | 567 W/m² | - |
| 1777647616 | 11.11° C | 65% | 1018.7 hPa | 0 mm | - | 540 W/m² | - |
| 1777647016 | 10.56° C | 66% | 1018.7 hPa | 0 mm | - | 515 W/m² | - |
| 1777646416 | 10° C | 67% | 1018.7 hPa | 0 mm | - | 486 W/m² | - |
| 1777645816 | 9.44° C | 70% | 1018.6 hPa | 0 mm | - | 457 W/m² | - |
| 1777645215 | 9.44° C | 71% | 1018.5 hPa | 0 mm | - | 415 W/m² | - |
| 1777644616 | 9.44° C | 72% | 1018.4 hPa | 0 mm | - | 351 W/m² | - |
* Rain latest hour (hover to see other rain measurements)
** Current wind speed in m/s (hover to see current wind gust speed)